FW9555 Weather Reports


Display with metric or nautical units.
time (UTC)temp
F
wind
direction
speed
MPH
gust
MPH
rain 1hr
in
rain 24hr
in
rain mn
in
humidity
%
barometer
mb
20260831042051 70 294 0.0 0.0 0.00 0.00 0.00 99 1024.0
20260831041546 70 294 0.0 0.0 0.00 0.00 0.00 99 1024.3
20260831041046 70 294 0.0 0.0 0.00 0.00 0.00 98 1024.2
20260831040540 70 294 0.0 0.0 0.00 0.00 0.00 98 1024.2
20260831040040 70 294 0.0 0.0 0.00 0.00 0.00 98 1024.1
20260831035537 70 294 0.0 0.0 0.00 0.00 0.00 98 1024.2
20260831035033 70 294 0.0 0.0 0.00 0.00 0.00 98 1024.3
20260831034532 70 294 0.0 0.0 0.00 0.00 0.00 98 1023.9
20260831034028 71 294 0.0 0.0 0.00 0.00 0.00 98 1024.1
20260831033523 71 294 0.0 0.0 0.00 0.00 0.00 98 1024.1
20260831033018 71 294 0.0 0.0 0.00 0.00 0.00 98 1024.3
20260831032518 71 294 0.0 0.0 0.00 0.00 0.00 98 1024.4
20260831032014 71 294 0.0 0.0 0.00 0.00 0.00 98 1024.5
20260831031513 71 294 0.0 0.0 0.00 0.00 0.00 98 1024.3
20260831031012 72 294 0.0 0.0 0.00 0.00 0.00 98 1024.4
20260831030512 72 294 0.0 1.0 0.00 0.00 0.00 97 1024.1
20260831030011 72 279 0.0 0.0 0.00 0.00 0.00 97 1024.3
20260831025509 71 279 0.0 0.0 0.00 0.00 0.00 96 1024.5
20260831025005 71 279 0.0 0.0 0.00 0.00 0.00 96 1024.5
20260831024500 71 279 0.0 0.0 0.00 0.00 0.00 96 1024.4
20260831023954 72 279 0.0 0.0 0.00 0.00 0.00 96 1024.4
20260831023452 72 279 0.0 0.0 0.00 0.00 0.00 96 1024.3
20260831022947 72 279 0.0 0.0 0.00 0.00 0.00 96 1024.1
20260831022446 72 279 0.0 0.0 0.00 0.00 0.00 96 1024.4
20260831021941 72 279 0.0 0.0 0.00 0.00 0.00 96 1024.4
20260831021440 73 279 0.0 0.0 0.00 0.00 0.00 96 1024.3
20260831020937 73 279 0.0 0.0 0.00 0.00 0.00 95 1024.3
20260831020436 73 279 0.0 0.0 0.00 0.00 0.00 95 1024.1
20260831015931 73 279 0.0 0.0 0.00 0.00 0.00 95 1024.0
20260831015427 73 279 0.0 0.0 0.00 0.00 0.00 95 1024.0
20260831014922 73 279 0.0 0.0 0.00 0.00 0.00 94 1024.1
20260831014417 73 279 0.0 0.0 0.00 0.00 0.00 93 1023.7
20260831013913 74 279 0.0 0.0 0.00 0.00 0.00 93 1024.2
20260831013408 73 279 0.0 0.0 0.00 0.00 0.00 93 1024.0
20260831012902 74 279 0.0 0.0 0.00 0.00 0.00 93 1024.0
20260831012357 74 279 0.0 0.0 0.00 0.00 0.00 93 1023.8
20260831011857 74 279 0.0 0.0 0.00 0.00 0.00 92 1024.0
20260831011352 74 279 0.0 0.0 0.00 0.00 0.00 92 1023.8
20260831010848 75 279 0.0 0.0 0.00 0.00 0.00 92 1023.7
20260831010348 75 279 0.0 0.0 0.00 0.00 0.00 91 1023.5
20260831005844 75 279 0.0 0.0 0.00 0.00 0.00 91 1023.8
20260831005339 75 279 0.0 0.0 0.00 0.00 0.00 91 1023.7
20260831004834 76 279 0.0 0.0 0.00 0.00 0.00 90 1023.7
20260831004330 76 279 0.0 0.0 0.00 0.00 0.00 90 1023.6
20260831003826 76 279 0.0 0.0 0.00 0.00 0.00 89 1023.7
20260831003322 77 279 0.0 0.0 0.00 0.00 0.00 89 1023.3
20260831002821 77 279 0.0 0.0 0.00 0.00 0.00 88 1023.6
20260831002320 77 279 0.0 0.0 0.00 0.00 0.00 87 1023.5
20260831001816 77 279 0.0 0.0 0.00 0.00 0.00 86 1023.3
20260831001311 78 279 0.0 0.0 0.00 0.00 0.00 86 1023.2
20260831000809 78 279 0.0 0.0 0.00 0.00 0.00 85 1023.4
20260831000310 79 279 0.0 0.0 0.00 0.00 0.00 84 1023.4
20260830235807 79 279 0.0 0.0 0.00 0.00 0.00 83 1023.1
20260830235305 80 279 0.0 0.0 0.00 0.00 0.00 83 1023.4
20260830234756 80 279 0.0 0.0 0.00 0.00 0.00 81 1023.4
20260830234253 80 279 0.0 0.0 0.00 0.00 0.00 81 1023.4
20260830233748 81 279 0.0 0.0 0.00 0.00 0.00 80 1023.4
20260830233244 82 279 0.0 0.0 0.00 0.00 0.00 78 1023.3
20260830232739 83 279 0.0 0.0 0.00 0.00 0.00 77 1023.3
20260830232235 84 279 0.0 0.0 0.00 0.00 0.00 76 1023.2
20260830231731 84 286 0.0 0.0 0.00 0.00 0.00 75 1023.3
20260830231231 84 286 0.0 1.0 0.00 0.00 0.00 76 1023.5
20260830230726 84 286 0.0 1.0 0.00 0.00 0.00 77 1023.3
20260830230221 84 291 0.0 0.0 0.00 0.00 0.00 77 1023.5
20260830225720 84 291 0.0 0.0 0.00 0.00 0.00 76 1023.3
20260830225215 85 291 1.0 2.0 0.00 0.00 0.00 75 1023.3
20260830224714 86 345 0.0 0.0 0.00 0.00 0.00 73 1023.4
20260830224210 86 345 0.0 0.0 0.00 0.00 0.00 71 1023.4
20260830223707 88 345 0.0 0.0 0.00 0.00 0.00 68 1023.1
20260830223202 90 345 0.0 0.0 0.00 0.00 0.00 64 1023.3
20260830222656 94 353 0.0 0.0 0.00 0.00 0.00 58 1023.1
20260830222152 97 285 0.0 1.0 0.00 0.00 0.00 54 1023.1
20260830221647 99 324 0.0 2.0 0.00 0.00 0.00 52 1023.3
20260830221144 99 172 0.0 1.0 0.00 0.00 0.00 52 1022.9
20260830220639 98 291 0.0 0.0 0.00 0.00 0.00 55 1022.9
20260830220138 96 352 0.0 1.0 0.00 0.00 0.00 59 1023.0
20260830215637 93 294 0.0 1.0 0.00 0.00 0.00 62 1023.2
20260830215131 90 340 0.0 0.0 0.00 0.00 0.00 66 1023.1
20260830214627 92 7 0.0 0.0 0.00 0.00 0.00 62 1023.1
20260830214121 95 7 0.0 0.0 0.00 0.00 0.00 58 1023.0
20260830213620 95 291 1.0 1.0 0.00 0.00 0.00 60 1023.2
20260830213116 92 0 0.0 0.0 0.00 0.00 0.00 60 1023.3
20260830212612 93 29 0.0 1.0 0.00 0.00 0.00 58 1023.3
20260830212107 94 102 0.0 3.0 0.00 0.00 0.00 56 1023.2
20260830211601 94 81 0.0 1.0 0.00 0.00 0.00 57 1023.2
20260830211055 94 297 0.0 2.0 0.00 0.00 0.00 57 1023.2
20260830210551 93 327 0.0 2.0 0.00 0.00 0.00 62 1023.2
20260830210050 91 311 3.0 4.0 0.00 0.00 0.00 59 1023.4
20260830205548 96 291 1.0 2.0 0.00 0.00 0.00 59 1023.2
20260830205043 92 29 0.0 2.0 0.00 0.00 0.00 59 1023.2
20260830204543 92 300 3.0 5.0 0.00 0.00 0.00 56 1023.3
20260830204042 97 300 0.0 2.0 0.00 0.00 0.00 56 1023.2
20260830203539 95 346 0.0 1.0 0.00 0.00 0.00 58 1023.1
20260830203038 90 23 1.0 1.0 0.00 0.00 0.00 61 1023.1
20260830202533 91 77 1.0 1.0 0.00 0.00 0.00 62 1023.3
20260830202029 89 284 3.0 3.0 0.00 0.00 0.00 64 1023.4
20260830201528 93 345 1.0 3.0 0.00 0.00 0.00 65 1023.4
20260830201023 90 45 0.0 3.0 0.00 0.00 0.00 64 1023.5
20260830200518 89 320 2.0 2.0 0.00 0.00 0.00 67 1023.8
20260830200017 87 338 4.0 5.0 0.00 0.00 0.00 66 1023.9
20260830195513 89 352 1.0 3.0 0.00 0.00 0.00 65 1023.7
20260830195011 88 288 3.0 3.0 0.00 0.00 0.00 66 1023.9
20260830194510 87 337 0.0 1.0 0.00 0.00 0.00 67 1024.0
20260830194005 89 8 0.0 2.0 0.00 0.00 0.00 65 1024.1
20260830193504 91 8 0.0 1.0 0.00 0.00 0.00 63 1024.2
20260830192959 89 289 0.0 3.0 0.00 0.00 0.00 64 1024.2
20260830192454 88 291 0.0 4.0 0.00 0.00 0.00 68 1024.2
20260830191949 88 328 4.0 5.0 0.00 0.00 0.00 67 1024.2
20260830191444 88 8 0.0 1.0 0.00 0.00 0.00 69 1024.5
20260830190940 86 8 0.0 4.0 0.00 0.00 0.00 68 1024.6
20260830190435 87 257 0.0 3.0 0.00 0.00 0.00 68 1024.4
20260830185934 87 300 0.0 3.0 0.00 0.00 0.00 68 1024.6
20260830185429 85 345 0.0 1.0 0.00 0.00 0.00 73 1024.8
20260830184925 84 90 0.0 1.0 0.00 0.00 0.00 72 1024.7
20260830184423 86 48 0.0 3.0 0.00 0.00 0.00 70 1024.8
20260830183924 87 0 1.0 1.0 0.00 0.00 0.00 67 1025.0
20260830183418 89 326 2.0 3.0 0.00 0.00 0.00 65 1025.2
20260830182914 88 8 0.0 2.0 0.00 0.00 0.00 68 1025.2
20260830182409 86 60 1.0 2.0 0.00 0.00 0.00 70 1025.2
20260830181905 85 337 0.0 1.0 0.00 0.00 0.00 72 1025.3
20260830181401 87 352 0.0 2.0 0.00 0.00 0.00 68 1025.5
20260830180855 86 355 2.0 4.0 0.00 0.00 0.00 71 1025.6
20260830180354 85 23 1.0 2.0 0.00 0.00 0.00 72 1025.7
20260830175853 84 350 3.0 3.0 0.00 0.00 0.00 73 1025.9
20260830175348 85 306 1.0 3.0 0.00 0.00 0.00 71 1025.7
20260830174848 85 66 0.0 2.0 0.00 0.00 0.00 72 1025.9
20260830174344 84 23 2.0 3.0 0.00 0.00 0.00 72 1025.9
20260830173839 83 297 2.0 6.0 0.00 0.00 0.00 74 1025.8
20260830173334 83 309 2.0 5.0 0.00 0.00 0.00 73 1026.1
20260830172830 81 270 3.0 4.0 0.00 0.00 0.00 77 1026.1
20260830172327 82 18 2.0 2.0 0.00 0.00 0.00 76 1026.1
20260830171822 82 346 0.0 5.0 0.00 0.00 0.00 76 1026.1
20260830171318 81 339 4.0 6.0 0.00 0.00 0.00 77 1026.3
20260830170813 82 270 3.0 4.0 0.00 0.00 0.00 76 1026.3
20260830170312 82 294 2.0 5.0 0.00 0.00 0.00 74 1026.5
20260830165811 81 0 0.0 3.0 0.00 0.00 0.00 76 1026.2
20260830165307 81 290 2.0 5.0 0.00 0.00 0.00 77 1026.2
20260830164803 82 337 1.0 3.0 0.00 0.00 0.00 76 1026.5
20260830164259 84 16 2.0 4.0 0.00 0.00 0.00 77 1026.5
20260830163756 82 69 0.0 2.0 0.00 0.00 0.00 77 1026.4
20260830163251 82 0 0.0 0.0 0.00 0.00 0.00 79 1026.4
20260830162745 81 311 2.0 2.0 0.00 0.00 0.00 76 1026.6
20260830162241 81 346 3.0 4.0 0.00 0.00 0.00 76 1026.7
20260830161736 82 294 0.0 4.0 0.00 0.00 0.00 77 1026.8
20260830161230 84 0 0.0 3.0 0.00 0.00 0.00 74 1026.7
20260830160726 84 279 0.0 3.0 0.00 0.00 0.00 77 1026.9
20260830160226 83 306 0.0 0.0 0.00 0.00 0.00 79 1026.8
20260830155722 80 0 0.0 1.0 0.00 0.00 0.00 81 1026.9
20260830155218 80 300 0.0 2.0 0.00 0.00 0.00 81 1027.0
20260830154713 81 325 0.0 1.0 0.00 0.00 0.00 80 1026.8
20260830154208 82 306 0.0 2.0 0.00 0.00 0.00 79 1027.0
20260830153705 81 285 0.0 1.0 0.00 0.00 0.00 78 1026.9
20260830153200 81 345 1.0 2.0 0.00 0.00 0.00 82 1026.8
20260830152658 81 270 2.0 2.0 0.00 0.00 0.00 82 1026.9
20260830152158 80 90 0.0 0.0 0.00 0.00 0.00 81 1026.9
20260830151653 80 337 0.0 0.0 0.00 0.00 0.00 82 1026.7
20260830151152 79 348 0.0 3.0 0.00 0.00 0.00 79 1027.0
20260830150648 80 270 0.0 1.0 0.00 0.00 0.00 82 1026.9
20260830150142 80 90 0.0 0.0 0.00 0.00 0.00 85 1027.2
20260830145641 79 82 1.0 1.0 0.00 0.00 0.00 83 1027.2
20260830145137 80 354 0.0 0.0 0.00 0.00 0.00 82 1026.9
20260830144632 79 7 0.0 0.0 0.00 0.00 0.00 83 1027.1
20260830144128 78 63 1.0 2.0 0.00 0.00 0.00 83 1027.0
20260830143624 78 270 0.0 0.0 0.00 0.00 0.00 85 1026.7
20260830143122 78 308 2.0 3.0 0.00 0.00 0.00 84 1026.7
20260830142618 78 337 0.0 2.0 0.00 0.00 0.00 84 1026.8
20260830142112 79 270 0.0 0.0 0.00 0.00 0.00 87 1026.7
20260830141608 78 270 0.0 0.0 0.00 0.00 0.00 86 1026.9
20260830141103 78 319 2.0 2.0 0.00 0.00 0.00 87 1026.7
20260830140557 78 294 1.0 2.0 0.00 0.00 0.00 86 1026.9
20260830140052 77 286 0.0 0.0 0.00 0.00 0.00 86 1026.8
20260830135547 78 334 1.0 1.0 0.00 0.00 0.00 87 1027.2
20260830135042 77 345 0.0 0.0 0.00 0.00 0.00 87 1027.2
20260830134538 77 263 0.0 2.0 0.00 0.00 0.00 89 1027.0
20260830134033 77 90 0.0 1.0 0.00 0.00 0.00 88 1026.8
20260830133529 76 294 0.0 2.0 0.00 0.00 0.00 89 1027.0
20260830133024 76 279 2.0 3.0 0.00 0.00 0.00 89 1026.9
20260830132520 76 285 0.0 1.0 0.00 0.00 0.00 91 1027.0
20260830132020 76 334 1.0 2.0 0.00 0.00 0.00 90 1026.9
20260830131519 76 20 1.0 1.0 0.00 0.00 0.00 91 1026.9
20260830131014 75 300 0.0 0.0 0.00 0.00 0.00 91 1026.9
20260830130509 75 0 1.0 1.0 0.00 0.00 0.00 91 1027.0
20260830130009 75 40 2.0 2.0 0.00 0.00 0.00 91 1027.0
20260830125504 74 0 0.0 1.0 0.00 0.00 0.00 91 1027.1
20260830125002 74 5 1.0 2.0 0.00 0.00 0.00 93 1027.2
20260830124457 74 300 1.0 2.0 0.00 0.00 0.00 93 1027.2
20260830123953 74 8 0.0 0.0 0.00 0.00 0.00 94 1027.2
20260830123449 74 8 0.0 0.0 0.00 0.00 0.00 94 1027.2
20260830122948 73 0 0.0 0.0 0.00 0.00 0.00 94 1027.2
20260830122447 73 0 0.0 0.0 0.00 0.00 0.00 94 1027.3
20260830121942 73 0 0.0 0.0 0.00 0.00 0.00 95 1027.1
20260830121437 73 0 0.0 0.0 0.00 0.00 0.00 94 1027.1
20260830120932 73 35 0.0 1.0 0.00 0.00 0.00 95 1026.8
20260830120427 73 66 0.0 0.0 0.00 0.00 0.00 95 1026.8
20260830115924 73 120 0.0 0.0 0.00 0.00 0.00 95 1026.8
20260830115420 73 120 0.0 1.0 0.00 0.00 0.00 95 1026.7
20260830114915 73 15 0.0 1.0 0.00 0.00 0.00 96 1026.7
20260830114411 73 0 0.0 0.0 0.00 0.00 0.00 96 1026.6
20260830113906 73 0 0.0 1.0 0.00 0.00 0.00 96 1026.9
20260830113401 73 345 1.0 1.0 0.00 0.00 0.00 96 1026.8
20260830112856 73 0 0.0 0.0 0.00 0.00 0.00 96 1026.5
20260830112352 73 0 0.0 0.0 0.00 0.00 0.00 96 1026.5
20260830111848 73 0 0.0 0.0 0.00 0.00 0.00 96 1026.4
20260830111343 73 0 0.0 0.0 0.00 0.00 0.00 96 1026.3
20260830110843 73 0 0.0 0.0 0.00 0.00 0.00 97 1026.2
20260830110340 73 66 0.0 0.0 0.00 0.00 0.00 97 1026.2
20260830105838 73 66 0.0 0.0 0.00 0.00 0.00 97 1026.2
20260830105335 73 8 0.0 0.0 0.00 0.00 0.00 97 1026.0
20260830104831 73 8 0.0 0.0 0.00 0.00 0.00 98 1026.1
20260830104328 73 8 0.0 0.0 0.00 0.00 0.00 98 1026.0
20260830103826 73 66 0.0 1.0 0.00 0.00 0.00 98 1026.0
20260830103323 73 8 0.0 0.0 0.00 0.00 0.00 98 1025.8
20260830102821 73 8 0.0 0.0 0.00 0.00 0.00 98 1025.7
20260830102317 73 8 0.0 0.0 0.00 0.00 0.00 99 1025.8
20260830101812 73 8 0.0 0.0 0.00 0.00 0.00 99 1025.5
20260830101308 73 40 0.0 0.0 0.00 0.00 0.00 99 1025.7
20260830100807 73 40 0.0 0.0 0.00 0.00 0.00 99 1025.5
20260830100301 73 0 0.0 0.0 0.00 0.00 0.00 99 1025.5
20260830095800 73 7 1.0 1.0 0.00 0.00 0.00 99 1025.3
20260830095257 72 40 0.0 2.0 0.00 0.00 0.00 99 1025.5
20260830094752 72 0 0.0 0.0 0.00 0.00 0.00 99 1025.3
20260830094248 72 90 0.0 0.0 0.00 0.00 0.00 99 1025.3
20260830093743 72 90 0.0 1.0 0.00 0.00 0.00 99 1025.3
20260830093239 72 345 0.0 0.0 0.00 0.00 0.00 99 1025.3
20260830092738 72 345 0.0 0.0 0.00 0.00 0.00 99 1025.4
20260830092236 72 345 0.0 0.0 0.00 0.00 0.00 99 1025.3
20260830091732 72 345 0.0 0.0 0.00 0.00 0.00 99 1025.3
20260830091231 72 345 0.0 0.0 0.00 0.00 0.00 99 1025.4
20260830090730 72 345 0.0 0.0 0.00 0.00 0.00 99 1025.4
20260830090226 72 352 0.0 0.0 0.00 0.00 0.00 99 1025.2
20260830085725 72 352 0.0 0.0 0.00 0.00 0.00 99 1025.3
20260830085221 72 352 0.0 0.0 0.00 0.00 0.00 99 1025.1
20260830084716 72 294 0.0 1.0 0.00 0.00 0.00 99 1025.4
20260830084212 72 294 0.0 1.0 0.00 0.00 0.00 99 1025.5
20260830083707 72 300 0.0 0.0 0.00 0.00 0.00 99 1025.3
20260830083202 72 300 0.0 0.0 0.00 0.00 0.00 99 1025.6
20260830082702 72 277 0.0 0.0 0.00 0.00 0.00 99 1025.5
20260830082158 72 0 0.0 0.0 0.00 0.00 0.00 99 1025.4
20260830081653 72 0 0.0 0.0 0.00 0.00 0.00 99 1025.5
20260830081152 72 0 0.0 1.0 0.00 0.00 0.00 99 1025.5
20260830080647 72 286 0.0 1.0 0.00 0.00 0.00 99 1025.8
20260830080143 72 270 0.0 0.0 0.00 0.00 0.00 99 1025.7
20260830075642 72 8 0.0 0.0 0.00 0.00 0.00 99 1025.3
20260830075138 72 340 0.0 0.0 0.00 0.00 0.00 99 1025.6
20260830074633 72 345 0.0 0.0 0.00 0.00 0.00 99 1025.4
20260830074129 72 345 0.0 0.0 0.00 0.00 0.00 99 1025.4
20260830073625 71 345 0.0 0.0 0.00 0.00 0.00 99 1025.7
20260830073120 71 345 0.0 0.0 0.00 0.00 0.00 99 1025.6
20260830072615 71 345 0.0 0.0 0.00 0.00 0.00 99 1025.6
20260830072115 71 345 0.0 0.0 0.00 0.00 0.00 99 1025.9
20260830071610 71 345 0.0 0.0 0.00 0.00 0.00 99 1025.7
20260830071108 71 345 0.0 0.0 0.00 0.00 0.00 99 1025.8
20260830070603 71 345 0.0 0.0 0.00 0.00 0.00 99 1025.8
20260830070058 71 0 0.0 0.0 0.00 0.00 0.00 99 1025.5
20260830065557 71 0 0.0 0.0 0.00 0.00 0.00 99 1025.8
20260830065055 71 352 0.0 1.0 0.00 0.00 0.00 99 1025.5
20260830064550 71 5 0.0 0.0 0.00 0.00 0.00 99 1025.9
20260830064045 70 14 0.0 0.0 0.00 0.00 0.00 99 1025.8
20260830063545 70 345 0.0 1.0 0.00 0.00 0.00 99 1025.7
20260830063044 70 14 0.0 0.0 0.00 0.00 0.00 99 1026.0
20260830062539 70 8 0.0 0.0 0.00 0.00 0.00 99 1025.8
20260830062033 70 8 0.0 0.0 0.00 0.00 0.00 99 1025.7
20260830061528 71 8 0.0 0.0 0.00 0.00 0.00 99 1025.6
20260830061025 70 8 0.0 0.0 0.00 0.00 0.00 99 1025.5
20260830060521 70 8 0.0 0.0 0.00 0.00 0.00 99 1025.9
20260830060017 70 8 0.0 0.0 0.00 0.00 0.00 99 1025.7
20260830055512 71 346 0.0 0.0 0.00 0.00 0.00 99 1025.8
20260830055008 71 346 0.0 0.0 0.00 0.00 0.00 99 1025.9
20260830054503 71 346 0.0 0.0 0.00 0.00 0.00 99 1025.9
20260830053959 71 346 0.0 0.0 0.00 0.00 0.00 99 1025.7
20260830053454 71 346 0.0 0.0 0.00 0.00 0.00 99 1025.9
20260830052953 71 346 0.0 0.0 0.00 0.00 0.00 99 1026.0
20260830052449 71 346 0.0 0.0 0.00 0.00 0.00 99 1025.9
20260830051944 71 346 0.0 0.0 0.00 0.00 0.00 99 1025.9
20260830051438 71 346 0.0 0.0 0.00 0.00 0.00 99 1025.8
20260830050938 71 346 0.0 0.0 0.00 0.00 0.00 99 1025.9
20260830050434 71 346 0.0 0.0 0.00 0.00 0.00 99 1025.9
20260830045932 71 346 0.0 0.0 0.00 0.00 0.00 99 1026.0
20260830045427 71 346 0.0 0.0 0.00 0.00 0.00 99 1025.8
20260830044926 71 346 0.0 0.0 0.00 0.00 0.00 98 1025.8
20260830044422 72 346 0.0 0.0 0.00 0.00 0.00 98 1025.7
20260830043917 72 346 0.0 0.0 0.00 0.00 0.00 98 1026.0
20260830043411 72 346 0.0 0.0 0.00 0.00 0.00 98 1026.1
20260830042909 72 345 0.0 1.0 0.00 0.00 0.00 98 1026.2
20260830042404 72 337 0.0 1.0 0.00 0.00 0.00 98 1026.0